Regional Weather Roundup
Issued by NWS

Home | Current Version | Previous Version | Text Only | Print | Product List | Glossary On
Versions: 1 2 3 4 5 6 7 8 9 10 11 12 13 14 15 16 17 18 19 20 21 22 23 24 25 26 27 28 29 30 31 32 33 34 35 36 37 38 39 40 41 42 43 44 45 46 47 48 49 50
000
ASUS45 KABQ 201710
RWRNM
WEATHER ROUNDUP FOR NEW MEXICO
NATIONAL WEATHER SERVICE ALBUQUERQUE NM
1000 AM MST SAT DEC 20 2014

NOTE: "FAIR" MEANS FEW OR NO CLOUDS BELOW 12,000 FEET AGL WITH NO
       SIGNIFICANT WEATHER OR OBSTRUCTIONS TO VISION.

      THIS PRODUCT IS RELEASED AS TWO VERSIONS.  ONE VERSION NEAR
      THE TOP OF THE HOUR CONTAINING PRELIMINARY DATA FROM ALBUQUERQUE
      AND OTHER STATIONS.  A FINAL VERSION WITH ADDITIONAL DATA IS
      ISSUED ABOUT 10 MINUTES AFTER THE HOUR.

NMZ501-503-504-510>518-201800-
NORTHWEST PLATEAU/NORTHCENTRAL MOUNTAINS

CITY           SKY/WX    TMP DP  RH WIND       PRES   REMARKS
FARMINGTON     CLOUDY    32  27  81 CALM      30.20R
LOS ALAMOS     MOSUNNY   30  19  63 CALM      30.15S
SANTA FE       PTSUNNY   29  16  58 N14       30.14R WCI  18
TAOS           PTSUNNY   25  18  74 CALM      30.17S
ANGEL FIRE     FAIR      14  12  91 CALM      30.14S

$$
NMZ402-403-502-505>509-201800-
WESTCENTRAL MOUNTAINS/SOUTHWEST MOUNTAINS

CITY           SKY/WX    TMP DP  RH WIND       PRES   REMARKS
GALLUP         PTSUNNY   27  24  89 CALM      30.20F
GRANTS         SUNNY     29  26  88 NW6       30.20F WCI  22
SILVER CITY    SUNNY     39  28  65 CALM      30.20R

$$
NMZ407-409-411-412-201800-
SOUTHERN DESERTS

CITY           SKY/WX    TMP DP  RH WIND       PRES   REMARKS
LORDSBURG      FAIR      34  32  93 CALM      30.20R
DEMING         SUNNY     41  29  62 CALM      30.19R
LAS CRUCES     SUNNY     41  29  61 E3        30.19S
HOLLOMAN AFB   MOSUNNY   35  28  75 SE2       30.17R
ALAMOGORDO     MOSUNNY   37  28  70 CALM      30.18R
T OR C         MOSUNNY   40  25  55 VRB3      30.17R

$$
NMZ519>523-201800-
CENTRAL VALLEYS/CENTRAL HIGHLANDS

CITY           SKY/WX    TMP DP  RH WIND       PRES   REMARKS
ALBUQUERQUE    PTSUNNY   33  26  75 CALM      30.19R
DOUBLE EAGLE   PTSUNNY   30  25  80 SE3       30.18R
MORIARTY ARPT  FAIR      36  21  55 NW10      30.14R WCI  28
CLINES CORNERS PTSUNNY   33  18  53 NW15G28   30.09R WCI  23
BELEN          FAIR      36  27  69 N6        30.19S WCI  32
SOCORRO        FAIR      36  26  66 N5        30.20R WCI  32

$$
NMZ524>526-539-540-201800-
SOUTHCENTRAL MOUNTAINS

CITY           SKY/WX    TMP DP  RH WIND       PRES   REMARKS
RUIDOSO        SUNNY     39  14  35 NW12      30.12F WCI  32

$$
NMZ527>531-201800-
NORTHEAST HIGHLANDS/NORTHEAST PLAINS

CITY           SKY/WX    TMP DP  RH WIND       PRES   REMARKS
LAS VEGAS      MOSUNNY   40  13  33 N6        30.07R
RATON          PTSUNNY   37  22  54 NE7       30.06R WCI  32
CLAYTON        MOSUNNY   47  24  40 N10       30.04S

$$
NMZ532>537-201800-
EASTCENTRAL PLAINS

CITY           SKY/WX    TMP DP  RH WIND       PRES   REMARKS
TUCUMCARI      MOSUNNY   32  29  88 VRB3      30.08S
CANNON AFB     SUNNY     38  25  60 W9        30.09S WCI  31
CLOVIS AIRPORT SUNNY     37  27  65 SW12      30.09S WCI  30

$$
NMZ028-029-538-201800-
SOUTHEAST PLAINS

CITY           SKY/WX    TMP DP  RH WIND       PRES   REMARKS
ROSWELL        SUNNY     43  27  53 S7        30.12S
ARTESIA        SUNNY     37  28  70 SE6       30.15S WCI  33
CARLSBAD       CLOUDY    35  32  88 S8        30.14S FOG     WCI  29
HOBBS          CLOUDY    37  37 100 SE3       30.15F


$$



USA.gov is the U.S. government's official web portal to all federal, state and local government web resources and services.